Year,Month,Day,Hour,Minute,Value (Times are PST for temperature in C)
2013,07,02,00,00,20.40
2013,07,02,00,01,20.40
2013,07,02,00,02,20.40
2013,07,02,00,03,20.30
2013,07,02,00,04,20.30
2013,07,02,00,05,20.30
2013,07,02,00,06,20.30
2013,07,02,00,07,20.30
2013,07,02,00,08,20.30
2013,07,02,00,09,20.30
2013,07,02,00,10,20.30
2013,07,02,00,11,20.20
2013,07,02,00,12,20.20
2013,07,02,00,13,20.20
2013,07,02,00,14,20.20
2013,07,02,00,15,20.20
2013,07,02,00,16,20.20
2013,07,02,00,17,20.10
2013,07,02,00,18,20.10
2013,07,02,00,19,20.10
2013,07,02,00,20,20.10
2013,07,02,00,21,20.00
2013,07,02,00,22,20.00
2013,07,02,00,23,20.00
2013,07,02,00,24,19.90
2013,07,02,00,25,19.90
2013,07,02,00,26,19.90
2013,07,02,00,27,19.90
2013,07,02,00,28,19.90
2013,07,02,00,29,19.80
2013,07,02,00,30,19.80
2013,07,02,00,31,19.80
2013,07,02,00,32,19.80
2013,07,02,00,33,19.80
2013,07,02,00,34,19.80
2013,07,02,00,35,19.70
2013,07,02,00,36,19.70
2013,07,02,00,37,19.70
2013,07,02,00,38,19.70
2013,07,02,00,39,19.70
2013,07,02,00,40,19.70
2013,07,02,00,41,19.60
2013,07,02,00,42,19.60
2013,07,02,00,43,19.60
2013,07,02,00,44,19.60
2013,07,02,00,45,19.70
2013,07,02,00,46,19.70
2013,07,02,00,47,19.70
2013,07,02,00,48,19.70
2013,07,02,00,49,19.70
2013,07,02,00,50,19.70
2013,07,02,00,51,19.70
2013,07,02,00,52,19.70
2013,07,02,00,53,19.70
2013,07,02,00,54,19.70
2013,07,02,00,55,19.60
2013,07,02,00,56,19.60
2013,07,02,00,57,19.60
2013,07,02,00,58,19.60
2013,07,02,00,59,19.60
2013,07,02,01,00,19.50
2013,07,02,01,01,19.50
2013,07,02,01,02,19.50
2013,07,02,01,03,19.40
2013,07,02,01,04,19.40
2013,07,02,01,05,19.40
2013,07,02,01,06,19.40
2013,07,02,01,07,19.30
2013,07,02,01,08,19.30
2013,07,02,01,09,19.30
2013,07,02,01,10,19.30
2013,07,02,01,11,19.30
2013,07,02,01,12,19.30
2013,07,02,01,13,19.30
2013,07,02,01,14,19.30
2013,07,02,01,15,19.30
2013,07,02,01,16,19.30
2013,07,02,01,17,19.30
2013,07,02,01,18,19.30
2013,07,02,01,19,19.30
2013,07,02,01,20,19.30
2013,07,02,01,21,19.30
2013,07,02,01,22,19.30
2013,07,02,01,23,19.30
2013,07,02,01,24,19.30
2013,07,02,01,25,19.30
2013,07,02,01,26,19.30
2013,07,02,01,27,19.40
2013,07,02,01,28,19.40
2013,07,02,01,29,19.40
2013,07,02,01,30,19.40
2013,07,02,01,31,19.40
2013,07,02,01,32,19.40
2013,07,02,01,33,19.40
2013,07,02,01,34,19.30
2013,07,02,01,35,19.30
2013,07,02,01,36,19.30
2013,07,02,01,37,19.30
2013,07,02,01,38,19.30
2013,07,02,01,39,19.30
2013,07,02,01,40,19.30
2013,07,02,01,41,19.30
2013,07,02,01,42,19.30
2013,07,02,01,43,19.30
2013,07,02,01,44,19.30
2013,07,02,01,45,19.30
2013,07,02,01,46,19.30
2013,07,02,01,47,19.30
2013,07,02,01,48,19.30
2013,07,02,01,49,19.30
2013,07,02,01,50,19.30
2013,07,02,01,51,19.20
2013,07,02,01,52,19.20
2013,07,02,01,53,19.20
2013,07,02,01,54,19.20
2013,07,02,01,55,19.20
2013,07,02,01,56,19.20
2013,07,02,01,57,19.20
2013,07,02,01,58,19.20
2013,07,02,01,59,19.20
2013,07,02,02,00,19.20
2013,07,02,02,01,19.20
2013,07,02,02,02,19.20
2013,07,02,02,03,19.10
2013,07,02,02,04,19.10
2013,07,02,02,05,19.10
2013,07,02,02,06,19.10
2013,07,02,02,07,19.10
2013,07,02,02,08,19.10
2013,07,02,02,09,19.00
2013,07,02,02,10,19.00
2013,07,02,02,11,19.00
2013,07,02,02,12,18.90
2013,07,02,02,13,18.90
2013,07,02,02,14,18.90
2013,07,02,02,15,18.90
2013,07,02,02,16,18.90
2013,07,02,02,17,18.90
2013,07,02,02,18,18.90
2013,07,02,02,19,18.90
2013,07,02,02,20,18.90
2013,07,02,02,21,18.90
2013,07,02,02,22,18.90
2013,07,02,02,23,18.80
2013,07,02,02,24,18.80
2013,07,02,02,25,18.80
2013,07,02,02,26,18.80
2013,07,02,02,27,18.80
2013,07,02,02,28,18.80
2013,07,02,02,29,18.80
2013,07,02,02,30,18.80
2013,07,02,02,31,18.80
2013,07,02,02,32,18.70
2013,07,02,02,33,18.70
2013,07,02,02,34,18.70
2013,07,02,02,35,18.70
2013,07,02,02,36,18.70
2013,07,02,02,37,18.60
2013,07,02,02,38,18.60
2013,07,02,02,39,18.60
2013,07,02,02,40,18.60
2013,07,02,02,41,18.60
2013,07,02,02,42,18.60
2013,07,02,02,43,18.50
2013,07,02,02,44,18.50
2013,07,02,02,45,18.50
2013,07,02,02,46,18.50
2013,07,02,02,47,18.50
2013,07,02,02,48,18.50
2013,07,02,02,49,18.40
2013,07,02,02,50,18.40
2013,07,02,02,51,18.40
2013,07,02,02,52,18.40
2013,07,02,02,53,18.40
2013,07,02,02,54,18.40
2013,07,02,02,55,18.40
2013,07,02,02,56,18.40
2013,07,02,02,57,18.40
2013,07,02,02,58,18.40
2013,07,02,02,59,18.30
2013,07,02,03,00,18.30
2013,07,02,03,01,18.30
2013,07,02,03,02,18.30
2013,07,02,03,03,18.30
2013,07,02,03,04,18.20
2013,07,02,03,05,18.20
2013,07,02,03,06,18.20
2013,07,02,03,07,18.20
2013,07,02,03,08,18.10
2013,07,02,03,09,18.10
2013,07,02,03,10,18.00
2013,07,02,03,11,18.00
2013,07,02,03,12,17.90
2013,07,02,03,13,17.90
2013,07,02,03,14,17.80
2013,07,02,03,15,17.80
2013,07,02,03,16,17.80
2013,07,02,03,17,17.80
2013,07,02,03,18,17.80
2013,07,02,03,19,17.70
2013,07,02,03,20,17.70
2013,07,02,03,21,17.70
2013,07,02,03,22,17.70
2013,07,02,03,23,17.60
2013,07,02,03,24,17.60
2013,07,02,03,25,17.60
2013,07,02,03,26,17.60
2013,07,02,03,27,17.60
2013,07,02,03,28,17.50
2013,07,02,03,29,17.50
2013,07,02,03,30,17.50
2013,07,02,03,31,17.50
2013,07,02,03,32,17.40
2013,07,02,03,33,17.40
2013,07,02,03,34,17.40
2013,07,02,03,35,17.40
2013,07,02,03,36,17.40
2013,07,02,03,37,17.40
2013,07,02,03,38,17.40
2013,07,02,03,39,17.40
2013,07,02,03,40,17.40
2013,07,02,03,41,17.40
2013,07,02,03,42,17.40
2013,07,02,03,43,17.40
2013,07,02,03,44,17.40
2013,07,02,03,45,17.40
2013,07,02,03,46,17.40
2013,07,02,03,47,17.40
2013,07,02,03,48,17.40
2013,07,02,03,49,17.40
2013,07,02,03,50,17.40
2013,07,02,03,51,17.40
2013,07,02,03,52,17.40
2013,07,02,03,53,17.40
2013,07,02,03,54,17.40
2013,07,02,03,55,17.40
2013,07,02,03,56,17.40
2013,07,02,03,57,17.40
2013,07,02,03,58,17.40
2013,07,02,03,59,17.40
2013,07,02,04,00,17.40
2013,07,02,04,01,17.40
2013,07,02,04,02,17.40
2013,07,02,04,03,17.40
2013,07,02,04,04,17.40
2013,07,02,04,05,17.40
2013,07,02,04,06,17.40
2013,07,02,04,07,17.40
2013,07,02,04,08,17.40
2013,07,02,04,09,17.40
2013,07,02,04,10,17.30
2013,07,02,04,11,17.30
2013,07,02,04,12,17.30
2013,07,02,04,13,17.30
2013,07,02,04,14,17.20
2013,07,02,04,15,17.20
2013,07,02,04,16,17.20
2013,07,02,04,17,17.20
2013,07,02,04,18,17.10
2013,07,02,04,19,17.10
2013,07,02,04,20,17.10
2013,07,02,04,21,17.10
2013,07,02,04,22,17.10
2013,07,02,04,23,17.10
2013,07,02,04,24,17.10
2013,07,02,04,25,17.10
2013,07,02,04,26,17.10
2013,07,02,04,27,17.10
2013,07,02,04,28,17.10
2013,07,02,04,29,17.00
2013,07,02,04,30,17.00
2013,07,02,04,31,17.00
2013,07,02,04,32,16.90
2013,07,02,04,33,16.90
2013,07,02,04,34,16.90
2013,07,02,04,35,16.80
2013,07,02,04,36,16.80
2013,07,02,04,37,16.80
2013,07,02,04,38,16.80
2013,07,02,04,39,16.70
2013,07,02,04,40,16.70
2013,07,02,04,41,16.70
2013,07,02,04,42,16.70
2013,07,02,04,43,16.70
2013,07,02,04,44,16.70
2013,07,02,04,45,16.60
2013,07,02,04,46,16.60
2013,07,02,04,47,16.60
2013,07,02,04,48,16.50
2013,07,02,04,49,16.50
2013,07,02,04,50,16.40
2013,07,02,04,51,16.40
2013,07,02,04,52,16.40
2013,07,02,04,53,16.40
2013,07,02,04,54,16.30
2013,07,02,04,55,16.30
2013,07,02,04,56,16.20
2013,07,02,04,57,16.20
2013,07,02,04,58,16.20
2013,07,02,04,59,16.20
2013,07,02,05,00,16.10
2013,07,02,05,01,16.10
2013,07,02,05,02,16.10
2013,07,02,05,03,16.00
2013,07,02,05,04,16.00
2013,07,02,05,05,16.00
2013,07,02,05,06,16.00
2013,07,02,05,07,15.90
2013,07,02,05,08,15.90
2013,07,02,05,09,15.90
2013,07,02,05,10,16.00
2013,07,02,05,11,16.00
2013,07,02,05,12,16.00
2013,07,02,05,13,16.00
2013,07,02,05,14,16.10
2013,07,02,05,15,16.10
2013,07,02,05,16,16.10
2013,07,02,05,17,16.10
2013,07,02,05,18,16.20
2013,07,02,05,19,16.20
2013,07,02,05,20,16.20
2013,07,02,05,21,16.20
2013,07,02,05,22,16.20
2013,07,02,05,23,16.20
2013,07,02,05,24,16.20
2013,07,02,05,25,16.20
2013,07,02,05,26,16.20
2013,07,02,05,27,16.20
2013,07,02,05,28,16.20
2013,07,02,05,29,16.10
2013,07,02,05,30,16.10
2013,07,02,05,31,16.10
2013,07,02,05,32,16.10
2013,07,02,05,33,16.10
2013,07,02,05,34,16.10
2013,07,02,05,35,16.10
2013,07,02,05,36,16.10
2013,07,02,05,37,16.10
2013,07,02,05,38,16.10
2013,07,02,05,39,16.10
2013,07,02,05,40,16.10
2013,07,02,05,41,16.10
2013,07,02,05,42,16.10
2013,07,02,05,43,16.10
2013,07,02,05,44,16.10
2013,07,02,05,45,16.10
2013,07,02,05,46,16.00
2013,07,02,05,47,16.00
2013,07,02,05,48,16.00
2013,07,02,05,49,16.00
2013,07,02,05,50,15.90
2013,07,02,05,51,15.90
2013,07,02,05,52,15.90
2013,07,02,05,53,15.90
2013,07,02,05,54,15.90
2013,07,02,05,55,15.90
2013,07,02,05,56,15.90
2013,07,02,05,57,15.80
2013,07,02,05,58,15.80
2013,07,02,05,59,15.80
2013,07,02,06,00,15.80
2013,07,02,06,01,15.80
2013,07,02,06,02,15.80
2013,07,02,06,03,15.80
2013,07,02,06,04,15.80
2013,07,02,06,05,15.80
2013,07,02,06,06,15.70
2013,07,02,06,07,15.70
2013,07,02,06,08,15.70
2013,07,02,06,09,15.70
2013,07,02,06,10,15.70
2013,07,02,06,11,15.70
2013,07,02,06,12,15.70
2013,07,02,06,13,15.70
2013,07,02,06,14,15.70
2013,07,02,06,15,15.70
2013,07,02,06,16,15.70
2013,07,02,06,17,15.70
2013,07,02,06,18,15.70
2013,07,02,06,19,15.70
2013,07,02,06,20,15.60
2013,07,02,06,21,15.60
2013,07,02,06,22,15.60
2013,07,02,06,23,15.60
2013,07,02,06,24,15.60
2013,07,02,06,25,15.60
2013,07,02,06,26,15.60
2013,07,02,06,27,15.60
2013,07,02,06,28,15.60
2013,07,02,06,29,15.60
2013,07,02,06,30,15.60
2013,07,02,06,31,15.60
2013,07,02,06,32,15.60
2013,07,02,06,33,15.60
2013,07,02,06,34,15.60
2013,07,02,06,35,15.60
2013,07,02,06,36,15.50
2013,07,02,06,37,15.50
2013,07,02,06,38,15.50
2013,07,02,06,39,15.50
2013,07,02,06,40,15.50
2013,07,02,06,41,15.50
2013,07,02,06,42,15.40
2013,07,02,06,43,15.40
2013,07,02,06,44,15.40
2013,07,02,06,45,15.40
2013,07,02,06,46,15.40
2013,07,02,06,47,15.40
2013,07,02,06,48,15.40
2013,07,02,06,49,15.40
2013,07,02,06,50,15.40
2013,07,02,06,51,15.40
2013,07,02,06,52,15.30
2013,07,02,06,53,15.30
2013,07,02,06,54,15.30
2013,07,02,06,55,15.30
2013,07,02,06,56,15.30
2013,07,02,06,57,15.30
2013,07,02,06,58,15.30
2013,07,02,06,59,15.30
2013,07,02,07,00,15.20
2013,07,02,07,01,15.30
2013,07,02,07,02,15.30
2013,07,02,07,03,15.30
2013,07,02,07,04,15.30
2013,07,02,07,05,15.30
2013,07,02,07,06,15.30
2013,07,02,07,07,15.30
2013,07,02,07,08,15.30
2013,07,02,07,09,15.30
2013,07,02,07,10,15.30
2013,07,02,07,11,15.30
2013,07,02,07,12,15.30
2013,07,02,07,13,15.30
2013,07,02,07,14,15.30
2013,07,02,07,15,15.30
2013,07,02,07,16,15.30
2013,07,02,07,17,15.30
2013,07,02,07,18,15.30
2013,07,02,07,19,15.30
2013,07,02,07,20,15.30
2013,07,02,07,21,15.30
2013,07,02,07,22,15.30
2013,07,02,07,23,15.30
2013,07,02,07,24,15.30
2013,07,02,07,25,15.30
2013,07,02,07,26,15.30
2013,07,02,07,27,15.30
2013,07,02,07,28,15.30
2013,07,02,07,29,15.30
2013,07,02,07,30,15.30
2013,07,02,07,31,15.30
2013,07,02,07,32,15.30
2013,07,02,07,33,15.30
2013,07,02,07,34,15.30
2013,07,02,07,35,15.30
2013,07,02,07,36,15.30
2013,07,02,07,37,15.30
2013,07,02,07,38,15.30
2013,07,02,07,39,15.30
2013,07,02,07,40,15.30
2013,07,02,07,41,15.30
2013,07,02,07,42,15.30
2013,07,02,07,43,15.30
2013,07,02,07,44,15.30
2013,07,02,07,45,15.30
2013,07,02,07,46,15.30
2013,07,02,07,47,15.30
2013,07,02,07,48,15.30
2013,07,02,07,49,15.30
2013,07,02,07,50,15.30
2013,07,02,07,51,15.30
2013,07,02,07,52,15.30
2013,07,02,07,53,15.30
2013,07,02,07,54,15.30
2013,07,02,07,55,15.30
2013,07,02,07,56,15.30
2013,07,02,07,57,15.30
2013,07,02,07,58,15.40
2013,07,02,07,59,15.40
2013,07,02,08,00,15.40
2013,07,02,08,01,15.40
2013,07,02,08,02,15.40
2013,07,02,08,03,15.40
2013,07,02,08,04,15.40
2013,07,02,08,05,15.50
2013,07,02,08,06,15.50
2013,07,02,08,07,15.50
2013,07,02,08,08,15.50
2013,07,02,08,09,15.60
2013,07,02,08,10,15.60
2013,07,02,08,11,15.60
2013,07,02,08,12,15.60
2013,07,02,08,13,15.70
2013,07,02,08,14,15.70
2013,07,02,08,15,15.70
2013,07,02,08,16,15.70
2013,07,02,08,17,15.70
2013,07,02,08,18,15.70
2013,07,02,08,19,15.70
2013,07,02,08,20,15.80
2013,07,02,08,21,15.80
2013,07,02,08,22,15.80
2013,07,02,08,23,15.80
2013,07,02,08,24,15.80
2013,07,02,08,25,15.80
2013,07,02,08,26,15.90
2013,07,02,08,27,15.90
2013,07,02,08,28,15.90
2013,07,02,08,29,15.90
2013,07,02,08,30,16.00
2013,07,02,08,31,16.00
2013,07,02,08,32,16.00
2013,07,02,08,33,16.10
2013,07,02,08,34,16.10
2013,07,02,08,35,16.10
2013,07,02,08,36,16.20
2013,07,02,08,37,16.20
2013,07,02,08,38,16.20
2013,07,02,08,39,16.20
2013,07,02,08,40,16.30
2013,07,02,08,41,16.30
2013,07,02,08,42,16.30
2013,07,02,08,43,16.40
2013,07,02,08,44,16.40
2013,07,02,08,45,16.40
2013,07,02,08,46,16.50
2013,07,02,08,47,16.50
2013,07,02,08,48,16.50
2013,07,02,08,49,16.60
2013,07,02,08,50,16.60
2013,07,02,08,51,16.60
2013,07,02,08,52,16.70
2013,07,02,08,53,16.70
2013,07,02,08,54,16.80
2013,07,02,08,55,16.80
2013,07,02,08,56,16.80
2013,07,02,08,57,16.90
2013,07,02,08,58,16.90
2013,07,02,08,59,17.00
2013,07,02,09,00,17.00
2013,07,02,09,01,17.10
2013,07,02,09,02,17.10
2013,07,02,09,03,17.20
2013,07,02,09,04,17.20
2013,07,02,09,05,17.20
2013,07,02,09,06,17.30
2013,07,02,09,07,17.30
2013,07,02,09,08,17.30
2013,07,02,09,09,17.40
2013,07,02,09,10,17.40
2013,07,02,09,11,17.50
2013,07,02,09,12,17.50
2013,07,02,09,13,17.60
2013,07,02,09,14,17.60
2013,07,02,09,15,17.70
2013,07,02,09,16,17.70
2013,07,02,09,17,17.70
2013,07,02,09,18,17.80
2013,07,02,09,19,17.80
2013,07,02,09,20,17.80
2013,07,02,09,21,17.90
2013,07,02,09,22,17.90
2013,07,02,09,23,18.00
2013,07,02,09,24,18.00
2013,07,02,09,25,18.10
2013,07,02,09,26,18.10
2013,07,02,09,27,18.20
2013,07,02,09,28,18.30
2013,07,02,09,29,18.40
2013,07,02,09,30,18.50
2013,07,02,09,31,18.60
2013,07,02,09,32,18.70
2013,07,02,09,33,18.90
2013,07,02,09,34,19.10
2013,07,02,09,35,19.20
2013,07,02,09,36,19.40
2013,07,02,09,37,19.50
2013,07,02,09,38,19.70
2013,07,02,09,39,19.90
2013,07,02,09,40,20.00
2013,07,02,09,41,20.10
2013,07,02,09,42,20.30
2013,07,02,09,43,20.40
2013,07,02,09,44,20.50
2013,07,02,09,45,20.60
2013,07,02,09,46,20.80
2013,07,02,09,47,20.90
2013,07,02,09,48,21.00
2013,07,02,09,49,21.10
2013,07,02,09,50,21.20
2013,07,02,09,51,21.30
2013,07,02,09,52,21.40
2013,07,02,09,53,21.50
2013,07,02,09,54,21.60
2013,07,02,09,55,21.70
2013,07,02,09,56,21.80
2013,07,02,09,57,21.80
2013,07,02,09,58,21.90
2013,07,02,09,59,22.00
2013,07,02,10,00,22.10
2013,07,02,10,01,22.20
2013,07,02,10,02,22.30
2013,07,02,10,03,22.30
2013,07,02,10,04,22.30
2013,07,02,10,05,22.40
2013,07,02,10,06,22.40
2013,07,02,10,07,22.50
2013,07,02,10,08,22.50
2013,07,02,10,09,22.60
2013,07,02,10,10,22.60
2013,07,02,10,11,22.60
2013,07,02,10,12,22.70
2013,07,02,10,13,22.70
2013,07,02,10,14,22.70
2013,07,02,10,15,22.70
2013,07,02,10,16,22.70
2013,07,02,10,17,22.70
2013,07,02,10,18,22.70
2013,07,02,10,19,22.70
2013,07,02,10,20,22.70
2013,07,02,10,21,22.60
2013,07,02,10,22,22.60
2013,07,02,10,23,22.60
2013,07,02,10,24,22.60
2013,07,02,10,25,22.50
2013,07,02,10,26,22.50
2013,07,02,10,27,22.50
2013,07,02,10,28,22.50
2013,07,02,10,29,22.60
2013,07,02,10,30,22.60
2013,07,02,10,31,22.60
2013,07,02,10,32,22.60
2013,07,02,10,33,22.60
2013,07,02,10,34,22.60
2013,07,02,10,35,22.60
2013,07,02,10,36,22.60
2013,07,02,10,37,22.60
2013,07,02,10,38,22.60
2013,07,02,10,39,22.60
2013,07,02,10,40,22.70
2013,07,02,10,41,22.70
2013,07,02,10,42,22.70
2013,07,02,10,43,22.80
2013,07,02,10,44,22.80
2013,07,02,10,45,22.80
2013,07,02,10,46,22.90
2013,07,02,10,47,23.00
2013,07,02,10,48,23.00
2013,07,02,10,49,23.10
2013,07,02,10,50,23.20
2013,07,02,10,51,23.30
2013,07,02,10,52,23.30
2013,07,02,10,53,23.40
2013,07,02,10,54,23.50
2013,07,02,10,55,23.60
2013,07,02,10,56,23.70
2013,07,02,10,57,23.80
2013,07,02,10,58,23.80
2013,07,02,10,59,23.90
2013,07,02,11,00,23.90
2013,07,02,11,01,23.90
2013,07,02,11,02,24.00
2013,07,02,11,03,24.10
2013,07,02,11,04,24.10
2013,07,02,11,05,24.10
2013,07,02,11,06,24.10
2013,07,02,11,07,24.10
2013,07,02,11,08,24.10
2013,07,02,11,09,24.20
2013,07,02,11,10,24.20
2013,07,02,11,11,24.20
2013,07,02,11,12,24.30
2013,07,02,11,13,24.20
2013,07,02,11,14,24.20
2013,07,02,11,15,24.30
2013,07,02,11,16,24.30
2013,07,02,11,17,24.30
2013,07,02,11,18,24.30
2013,07,02,11,19,24.30
2013,07,02,11,20,24.30
2013,07,02,11,21,24.30
2013,07,02,11,22,24.30
2013,07,02,11,23,24.30
2013,07,02,11,24,24.30
2013,07,02,11,25,24.30
2013,07,02,11,26,24.30
2013,07,02,11,27,24.30
2013,07,02,11,28,24.30
2013,07,02,11,29,24.30
2013,07,02,11,30,24.30
2013,07,02,11,31,24.40
2013,07,02,11,32,24.40
2013,07,02,11,33,24.40
2013,07,02,11,34,24.40
2013,07,02,11,35,24.40
2013,07,02,11,36,24.50
2013,07,02,11,37,24.50
2013,07,02,11,38,24.50
2013,07,02,11,39,24.60
2013,07,02,11,40,24.70
2013,07,02,11,41,24.70
2013,07,02,11,42,24.80
2013,07,02,11,43,24.80
2013,07,02,11,44,24.80
2013,07,02,11,45,24.90
2013,07,02,11,46,24.90
2013,07,02,11,47,25.00
2013,07,02,11,48,25.10
2013,07,02,11,49,25.10
2013,07,02,11,50,25.20
2013,07,02,11,51,25.20
2013,07,02,11,52,25.30
2013,07,02,11,53,25.30
2013,07,02,11,54,25.30
2013,07,02,11,55,25.30
2013,07,02,11,56,25.30
2013,07,02,11,57,25.30
2013,07,02,11,58,25.30
2013,07,02,11,59,25.40
2013,07,02,12,00,25.40
2013,07,02,12,01,25.40
2013,07,02,12,02,25.40
2013,07,02,12,03,25.50
2013,07,02,12,04,25.60
2013,07,02,12,05,25.60
2013,07,02,12,06,25.70
2013,07,02,12,07,25.80
2013,07,02,12,08,25.90
2013,07,02,12,09,25.90
2013,07,02,12,10,25.90
2013,07,02,12,11,25.90
2013,07,02,12,12,25.90
2013,07,02,12,13,26.00
2013,07,02,12,14,26.10
2013,07,02,12,15,26.10
2013,07,02,12,16,26.20
2013,07,02,12,17,26.30
2013,07,02,12,18,26.30
2013,07,02,12,19,26.30
2013,07,02,12,20,26.40
2013,07,02,12,21,26.40
2013,07,02,12,22,26.40
2013,07,02,12,23,26.40
2013,07,02,12,24,26.40
2013,07,02,12,25,26.50
2013,07,02,12,26,26.50
2013,07,02,12,27,26.50
2013,07,02,12,28,26.60
2013,07,02,12,29,26.60
2013,07,02,12,30,26.60
2013,07,02,12,31,26.70
2013,07,02,12,32,26.60
2013,07,02,12,33,26.60
2013,07,02,12,34,26.60
2013,07,02,12,35,26.60
2013,07,02,12,36,26.60
2013,07,02,12,37,26.60
2013,07,02,12,38,26.60
2013,07,02,12,39,26.60
2013,07,02,12,40,26.60
2013,07,02,12,41,26.60
2013,07,02,12,42,26.60
2013,07,02,12,43,26.60
2013,07,02,12,44,26.60
2013,07,02,12,45,26.60
2013,07,02,12,46,26.70
2013,07,02,12,47,26.70
2013,07,02,12,48,26.70
2013,07,02,12,49,26.70
2013,07,02,12,50,26.60
2013,07,02,12,51,26.50
2013,07,02,12,52,26.40
2013,07,02,12,53,26.40
2013,07,02,12,54,26.40
2013,07,02,12,55,26.30
2013,07,02,12,56,26.30
2013,07,02,12,57,26.30
2013,07,02,12,58,26.30
2013,07,02,12,59,26.40
2013,07,02,13,00,26.40
2013,07,02,13,01,26.40
2013,07,02,13,02,26.40
2013,07,02,13,03,26.40
2013,07,02,13,04,26.40
2013,07,02,13,05,26.40
2013,07,02,13,06,26.30
2013,07,02,13,07,26.40
2013,07,02,13,08,26.30
2013,07,02,13,09,26.30
2013,07,02,13,10,26.30
2013,07,02,13,11,26.30
2013,07,02,13,12,26.30
2013,07,02,13,13,26.30
2013,07,02,13,14,26.30
2013,07,02,13,15,26.20
2013,07,02,13,16,26.20
2013,07,02,13,17,26.20
2013,07,02,13,18,26.30
2013,07,02,13,19,26.30
2013,07,02,13,20,26.30
2013,07,02,13,21,26.30
2013,07,02,13,22,26.30
2013,07,02,13,23,26.40
2013,07,02,13,24,26.40
2013,07,02,13,25,26.50
2013,07,02,13,26,26.50
2013,07,02,13,27,26.50
2013,07,02,13,28,26.50
2013,07,02,13,29,26.50
2013,07,02,13,30,26.50
2013,07,02,13,31,26.50
2013,07,02,13,32,26.50
2013,07,02,13,33,26.40
2013,07,02,13,34,26.50
2013,07,02,13,35,26.50
2013,07,02,13,36,26.50
2013,07,02,13,37,26.40
2013,07,02,13,38,26.40
2013,07,02,13,39,26.40
2013,07,02,13,40,26.40
2013,07,02,13,41,26.40
2013,07,02,13,42,26.40
2013,07,02,13,43,26.40
2013,07,02,13,44,26.40
2013,07,02,13,45,26.40
2013,07,02,13,46,26.40
2013,07,02,13,47,26.40
2013,07,02,13,48,26.30
2013,07,02,13,49,26.30
2013,07,02,13,50,26.30
2013,07,02,13,51,26.30
2013,07,02,13,52,26.30
2013,07,02,13,53,26.30
2013,07,02,13,54,26.30
2013,07,02,13,55,26.30
2013,07,02,13,56,26.40
2013,07,02,13,57,26.40
2013,07,02,13,58,26.50
2013,07,02,13,59,26.60
2013,07,02,14,00,26.60
2013,07,02,14,01,26.70
2013,07,02,14,02,26.80
2013,07,02,14,03,26.90
2013,07,02,14,04,27.00
2013,07,02,14,05,27.10
2013,07,02,14,06,27.10
2013,07,02,14,07,27.20
2013,07,02,14,08,27.30
2013,07,02,14,09,27.30
2013,07,02,14,10,27.40
2013,07,02,14,11,27.40
2013,07,02,14,12,27.50
2013,07,02,14,13,27.60
2013,07,02,14,14,27.70
2013,07,02,14,15,27.80
2013,07,02,14,16,27.80
2013,07,02,14,17,27.90
2013,07,02,14,18,27.90
2013,07,02,14,19,27.90
2013,07,02,14,20,27.90
2013,07,02,14,21,28.00
2013,07,02,14,22,28.00
2013,07,02,14,23,28.10
2013,07,02,14,24,28.10
2013,07,02,14,25,28.10
2013,07,02,14,26,28.10
2013,07,02,14,27,28.10
2013,07,02,14,28,28.10
2013,07,02,14,29,28.10
2013,07,02,14,30,28.10
2013,07,02,14,31,28.10
2013,07,02,14,32,28.10
2013,07,02,14,33,28.00
2013,07,02,14,34,28.00
2013,07,02,14,35,27.90
2013,07,02,14,36,28.00
2013,07,02,14,37,28.00
2013,07,02,14,38,28.10
2013,07,02,14,39,28.10
2013,07,02,14,40,28.20
2013,07,02,14,41,28.30
2013,07,02,14,42,28.40
2013,07,02,14,43,28.50
2013,07,02,14,44,28.60
2013,07,02,14,45,28.70
2013,07,02,14,46,28.90
2013,07,02,14,47,29.00
2013,07,02,14,48,29.20
2013,07,02,14,49,29.30
2013,07,02,14,50,29.40
2013,07,02,14,51,29.50
2013,07,02,14,52,29.50
2013,07,02,14,53,29.40
2013,07,02,14,54,29.40
2013,07,02,14,55,29.40
2013,07,02,14,56,29.40
2013,07,02,14,57,29.50
2013,07,02,14,58,29.50
2013,07,02,14,59,29.60
2013,07,02,15,00,29.60
2013,07,02,15,01,29.60
2013,07,02,15,02,29.60
2013,07,02,15,03,29.60
2013,07,02,15,04,29.60
2013,07,02,15,05,29.50
2013,07,02,15,06,29.50
2013,07,02,15,07,29.50
2013,07,02,15,08,29.50
2013,07,02,15,09,29.50
2013,07,02,15,10,29.50
2013,07,02,15,11,29.40
2013,07,02,15,12,29.50
2013,07,02,15,13,29.60
2013,07,02,15,14,29.60
2013,07,02,15,15,29.70
2013,07,02,15,16,29.70
2013,07,02,15,17,29.70
2013,07,02,15,18,29.80
2013,07,02,15,19,29.80
2013,07,02,15,20,29.80
2013,07,02,15,21,29.70
2013,07,02,15,22,29.70
2013,07,02,15,23,29.70
2013,07,02,15,24,29.60
2013,07,02,15,25,29.60
2013,07,02,15,26,29.60
2013,07,02,15,27,29.60
2013,07,02,15,28,29.60
2013,07,02,15,29,29.70
2013,07,02,15,30,29.80
2013,07,02,15,31,29.80
2013,07,02,15,32,29.80
2013,07,02,15,33,29.80
2013,07,02,15,34,29.70
2013,07,02,15,35,29.60
2013,07,02,15,36,29.60
2013,07,02,15,37,29.50
2013,07,02,15,38,29.50
2013,07,02,15,39,29.40
2013,07,02,15,40,29.40
2013,07,02,15,41,29.40
2013,07,02,15,42,29.50
2013,07,02,15,43,29.50
2013,07,02,15,44,29.60
2013,07,02,15,45,29.60
2013,07,02,15,46,29.60
2013,07,02,15,47,29.60
2013,07,02,15,48,29.60
2013,07,02,15,49,29.70
2013,07,02,15,50,29.70
2013,07,02,15,51,29.80
2013,07,02,15,52,29.80
2013,07,02,15,53,29.90
2013,07,02,15,54,29.90
2013,07,02,15,55,30.00
2013,07,02,15,56,30.10
2013,07,02,15,57,30.00
2013,07,02,15,58,30.10
2013,07,02,15,59,30.10
2013,07,02,16,00,30.10
2013,07,02,16,01,30.10
2013,07,02,16,02,30.10
2013,07,02,16,03,30.10
2013,07,02,16,04,30.10
2013,07,02,16,05,30.10
2013,07,02,16,06,30.10
2013,07,02,16,07,30.20
2013,07,02,16,08,30.20
2013,07,02,16,09,30.20
2013,07,02,16,10,30.20
2013,07,02,16,11,30.20
2013,07,02,16,12,30.10
2013,07,02,16,13,30.10
2013,07,02,16,14,30.00
2013,07,02,16,15,30.00
2013,07,02,16,16,30.00
2013,07,02,16,17,30.00
2013,07,02,16,18,29.90
2013,07,02,16,19,29.90
2013,07,02,16,20,29.80
2013,07,02,16,21,29.80
2013,07,02,16,22,29.80
2013,07,02,16,23,29.80
2013,07,02,16,24,29.80
2013,07,02,16,25,29.80
2013,07,02,16,26,29.80
2013,07,02,16,27,29.80
2013,07,02,16,28,29.70
2013,07,02,16,29,29.70
2013,07,02,16,30,29.70
2013,07,02,16,31,29.70
2013,07,02,16,32,29.80
2013,07,02,16,33,29.80
2013,07,02,16,34,29.80
2013,07,02,16,35,29.80
2013,07,02,16,36,29.80
2013,07,02,16,37,29.80
2013,07,02,16,38,29.70
2013,07,02,16,39,29.70
2013,07,02,16,40,29.70
2013,07,02,16,41,29.70
2013,07,02,16,42,29.60
2013,07,02,16,43,29.60
2013,07,02,16,44,29.60
2013,07,02,16,45,29.60
2013,07,02,16,46,29.50
2013,07,02,16,47,29.40
2013,07,02,16,48,29.30
2013,07,02,16,49,29.20
2013,07,02,16,50,29.10
2013,07,02,16,51,28.90
2013,07,02,16,52,28.70
2013,07,02,16,53,28.60
2013,07,02,16,54,28.40
2013,07,02,16,55,28.30
2013,07,02,16,56,28.20
2013,07,02,16,57,28.20
2013,07,02,16,58,28.20
2013,07,02,16,59,28.20
2013,07,02,17,00,28.20
2013,07,02,17,01,28.30
2013,07,02,17,02,28.30
2013,07,02,17,03,28.30
2013,07,02,17,04,28.40
2013,07,02,17,05,28.40
2013,07,02,17,06,28.50
2013,07,02,17,07,28.50
2013,07,02,17,08,28.50
2013,07,02,17,09,28.50
2013,07,02,17,10,28.50
2013,07,02,17,11,28.50
2013,07,02,17,12,28.40
2013,07,02,17,13,28.40
2013,07,02,17,14,28.40
2013,07,02,17,15,28.40
2013,07,02,17,16,28.40
2013,07,02,17,17,28.50
2013,07,02,17,18,28.40
2013,07,02,17,19,28.50